|
NORAD ID: 37253 Int'l Code: 2010-066K
Perigee: 299.3 km
Apogee: 10,767.7 km
Inclination: 34.6 °
Period: 215.4 minutes
Semi major axis: 11904 km
Launch date: December 8, 2010
Source: United States (US)
Note: This is a ROCKET BODY
Two Line Element Set (TLE):
1 37253U 10066K 13143.08997771 .00004673 00000-0 47445-3 0 7493
2 37253 034.5522 004.5131 4396805 285.8549 031.0786 06.68395912 59360
Source:
NASA's NSSDC Master Catalog entry for FALCON 9 R/B
|